ASA42 KSAN-KLAX

Flight info

Callsign ASA42
Flight time N/A
Altitude 10000
Route CWARD2 SLI
Aircraft B738/M-SDE2E3FGHIRWXY/LB1

Departure

Time 2026-05-07 04:55
Airport San Diego International Airport (KSAN)

Arrival

Time N/A
Airport Los Angeles International Airport (KLAX)
Time Latitude Longitude Altitude Speed Heading
2026-05-07 04:24 32.73426 -117.20472 22 ft 0 kts 122°
2026-05-07 04:40 32.73431 -117.20481 21 ft 4 kts 120°
2026-05-07 04:40 32.73443 -117.20510 22 ft 4 kts 112°
2026-05-07 04:41 32.73451 -117.20540 20 ft 4 kts 87°
2026-05-07 04:41 32.73445 -117.20561 23 ft 3 kts 13°
2026-05-07 04:41 32.73442 -117.20562 24 ft 1 kts
2026-05-07 04:47 32.73482 -117.20543 23 ft 15 kts 33°
2026-05-07 04:47 32.73567 -117.20434 18 ft 17 kts 52°
2026-05-07 04:47 32.73574 -117.20296 22 ft 17 kts 99°
2026-05-07 04:48 32.73548 -117.20186 24 ft 12 kts 106°
2026-05-07 04:48 32.73524 -117.20086 26 ft 14 kts 106°
2026-05-07 04:48 32.73496 -117.19971 27 ft 15 kts 105°
2026-05-07 04:48 32.73466 -117.19842 28 ft 19 kts 106°
2026-05-07 04:49 32.73420 -117.19663 27 ft 26 kts 107°
2026-05-07 04:49 32.73368 -117.19435 28 ft 31 kts 105°
2026-05-07 04:49 32.73311 -117.19215 24 ft 28 kts 110°
2026-05-07 04:49 32.73257 -117.18996 28 ft 28 kts 104°
2026-05-07 04:50 32.73208 -117.18770 36 ft 28 kts 105°
2026-05-07 04:50 32.73150 -117.18536 32 ft 31 kts 105°
2026-05-07 04:50 32.73087 -117.18277 33 ft 34 kts 107°
2026-05-07 04:50 32.73028 -117.18032 29 ft 32 kts 104°
2026-05-07 04:51 32.72972 -117.17810 25 ft 15 kts 108°
2026-05-07 04:51 32.72951 -117.17725 25 ft 7 kts 97°
2026-05-07 04:51 32.72954 -117.17685 26 ft 0 kts 76°
2026-05-07 04:52 32.72957 -117.17673 27 ft 7 kts 76°
2026-05-07 04:52 32.73021 -117.17626 30 ft 19 kts 325°
2026-05-07 04:52 32.73048 -117.17706 28 ft 0 kts 283°
2026-05-07 04:54 32.73051 -117.17725 28 ft 14 kts 283°
2026-05-07 04:54 32.73132 -117.18078 26 ft 77 kts 287°
2026-05-07 04:54 32.73340 -117.18913 26 ft 133 kts 286°
2026-05-07 04:54 32.73639 -117.20140 123 ft 168 kts 286°
2026-05-07 04:55 32.73974 -117.21418 942 ft 156 kts 295°
2026-05-07 04:55 32.74558 -117.22491 1631 ft 156 kts 307°
2026-05-07 04:55 32.75216 -117.23605 1998 ft 178 kts 307°
2026-05-07 04:55 32.75972 -117.24902 2246 ft 202 kts 306°
2026-05-07 04:56 32.76807 -117.26351 2405 ft 222 kts 305°
2026-05-07 04:56 32.77700 -117.27912 2704 ft 237 kts 305°
2026-05-07 04:56 32.78650 -117.29573 2999 ft 253 kts 304°
2026-05-07 04:56 32.79654 -117.31331 3681 ft 257 kts 304°
2026-05-07 04:57 32.80705 -117.33067 4417 ft 260 kts 308°
2026-05-07 04:57 32.81816 -117.34788 5108 ft 265 kts 309°
2026-05-07 04:57 32.82953 -117.36531 5781 ft 269 kts 309°
2026-05-07 04:57 32.84111 -117.38307 6433 ft 274 kts 309°
2026-05-07 04:58 32.85284 -117.40112 7116 ft 277 kts 310°
2026-05-07 04:58 32.86466 -117.41938 7833 ft 280 kts 310°
2026-05-07 04:58 32.87661 -117.43786 8537 ft 284 kts 311°
2026-05-07 04:58 32.88871 -117.45661 9241 ft 288 kts 311°
2026-05-07 04:59 32.90099 -117.47567 9847 ft 292 kts 311°
2026-05-07 04:59 32.91318 -117.49462 9930 ft 292 kts 311°
2026-05-07 04:59 32.92549 -117.51378 9970 ft 292 kts 311°
2026-05-07 04:59 32.93792 -117.53312 9955 ft 294 kts 311°
2026-05-07 05:00 32.95033 -117.55246 9956 ft 293 kts 311°
2026-05-07 05:00 32.96269 -117.57174 9973 ft 293 kts 311°
2026-05-07 05:00 32.97507 -117.59106 9964 ft 293 kts 311°
2026-05-07 05:00 32.98742 -117.61033 9967 ft 293 kts 311°
2026-05-07 05:01 32.99979 -117.62964 9968 ft 293 kts 311°
2026-05-07 05:01 33.01215 -117.64895 9958 ft 293 kts 311°
2026-05-07 05:01 33.02450 -117.66825 9957 ft 292 kts 311°
2026-05-07 05:01 33.03677 -117.68744 9954 ft 292 kts 311°
2026-05-07 05:02 33.04492 -117.70019 9955 ft 291 kts 311°
2026-05-07 05:02 33.06117 -117.72557 9970 ft 290 kts 312°
2026-05-07 05:02 33.07492 -117.74289 9965 ft 286 kts 322°
2026-05-07 05:02 33.09009 -117.75804 9968 ft 285 kts 324°
2026-05-07 05:03 33.10546 -117.77292 9973 ft 285 kts 324°
2026-05-07 05:03 33.12081 -117.78794 9955 ft 286 kts 324°
2026-05-07 05:03 33.13605 -117.80314 9962 ft 286 kts 324°
2026-05-07 05:03 33.14607 -117.81325 9975 ft 285 kts 323°
2026-05-07 05:04 33.16121 -117.82861 9957 ft 286 kts 323°
2026-05-07 05:04 33.17636 -117.84403 9955 ft 286 kts 323°
2026-05-07 05:04 33.19184 -117.85885 9932 ft 284 kts 333°
2026-05-07 05:04 33.21017 -117.86666 9676 ft 279 kts 351°
2026-05-07 05:05 33.23509 -117.87258 9367 ft 274 kts 351°
2026-05-07 05:05 33.24767 -117.87559 9205 ft 272 kts 351°
2026-05-07 05:05 33.26611 -117.88005 8946 ft 269 kts 351°
2026-05-07 05:05 33.28400 -117.88443 8806 ft 260 kts 351°
2026-05-07 05:06 33.30113 -117.88866 8729 ft 245 kts 351°
2026-05-07 05:06 33.31760 -117.89274 8490 ft 239 kts 351°
2026-05-07 05:06 33.33082 -117.89603 8277 ft 234 kts 350°
2026-05-07 05:06 33.34646 -117.89992 8032 ft 228 kts 350°
2026-05-07 05:07 33.36181 -117.90374 7769 ft 223 kts 350°
2026-05-07 05:07 33.37681 -117.90748 7522 ft 218 kts 350°
2026-05-07 05:07 33.39142 -117.91158 7269 ft 214 kts 346°
2026-05-07 05:07 33.40552 -117.91664 7032 ft 209 kts 344°
2026-05-07 05:08 33.41933 -117.92175 6791 ft 206 kts 345°
2026-05-07 05:08 33.43286 -117.92675 6548 ft 202 kts 345°
2026-05-07 05:08 33.44653 -117.93177 6276 ft 212 kts 344°
2026-05-07 05:08 33.46150 -117.93724 6129 ft 245 kts 344°
2026-05-07 05:09 33.47833 -117.94339 6040 ft 256 kts 344°
2026-05-07 05:09 33.49542 -117.94964 5996 ft 257 kts 344°
2026-05-07 05:09 33.51254 -117.95589 6012 ft 257 kts 344°
2026-05-07 05:09 33.52965 -117.96214 6001 ft 258 kts 344°
2026-05-07 05:10 33.54681 -117.96839 5993 ft 258 kts 344°
2026-05-07 05:10 33.56396 -117.97465 5992 ft 257 kts 344°
2026-05-07 05:10 33.58104 -117.98087 5995 ft 257 kts 344°
2026-05-07 05:10 33.59810 -117.98708 6000 ft 256 kts 344°
2026-05-07 05:11 33.61517 -117.99331 5998 ft 256 kts 344°
2026-05-07 05:11 33.63220 -117.99953 5995 ft 256 kts 343°
2026-05-07 05:11 33.64927 -118.00579 5994 ft 257 kts 343°
2026-05-07 05:11 33.66612 -118.01198 6001 ft 257 kts 343°
2026-05-07 05:12 33.68323 -118.01827 6005 ft 258 kts 343°
2026-05-07 05:12 33.70042 -118.02460 6002 ft 259 kts 343°
2026-05-07 05:12 33.71766 -118.03094 5996 ft 260 kts 343°
2026-05-07 05:12 33.73508 -118.03734 5773 ft 266 kts 343°
2026-05-07 05:13 33.75283 -118.04387 5490 ft 265 kts 343°
2026-05-07 05:13 33.77032 -118.05031 5255 ft 262 kts 343°
2026-05-07 05:13 33.78765 -118.05690 5016 ft 259 kts 340°
2026-05-07 05:13 33.80426 -118.06466 4999 ft 253 kts 338°
2026-05-07 05:14 33.82054 -118.07260 4972 ft 252 kts 338°
2026-05-07 05:14 33.83669 -118.08042 4982 ft 249 kts 338°
2026-05-07 05:14 33.85262 -118.08807 4960 ft 245 kts 338°
2026-05-07 05:14 33.86821 -118.09552 4970 ft 237 kts 338°
2026-05-07 05:15 33.88309 -118.10261 4951 ft 230 kts 338°
2026-05-07 05:15 33.89725 -118.11081 4846 ft 226 kts 320°
2026-05-07 05:15 33.90540 -118.12665 4582 ft 225 kts 288°
2026-05-07 05:15 33.91062 -118.14436 4279 ft 226 kts 292°
2026-05-07 05:16 33.91680 -118.16182 4046 ft 225 kts 295°
2026-05-07 05:16 33.92332 -118.17858 4012 ft 220 kts 296°
2026-05-07 05:16 33.93006 -118.19505 4012 ft 218 kts 297°
2026-05-07 05:16 33.93682 -118.21122 3998 ft 215 kts 297°
2026-05-07 05:17 33.94365 -118.22741 3904 ft 217 kts 297°
2026-05-07 05:17 33.95041 -118.24365 3858 ft 216 kts 292°
2026-05-07 05:17 33.95245 -118.26119 3430 ft 216 kts 268°
2026-05-07 05:17 33.95027 -118.28071 2792 ft 235 kts 260°
2026-05-07 05:18 33.94665 -118.29963 2390 ft 228 kts 256°
2026-05-07 05:18 33.94335 -118.31782 2007 ft 217 kts 258°
2026-05-07 05:18 33.94139 -118.33558 1451 ft 211 kts 267°
2026-05-07 05:18 33.94049 -118.35241 982 ft 198 kts 263°
2026-05-07 05:19 33.93881 -118.36820 631 ft 181 kts 262°
2026-05-07 05:19 33.93735 -118.38259 312 ft 167 kts 262°
2026-05-07 05:19 33.93566 -118.39543 368 ft 146 kts 259°
2026-05-07 05:19 33.93356 -118.40714 524 ft 142 kts 253°
2026-05-07 05:20 33.93027 -118.41947 631 ft 167 kts 249°
2026-05-07 05:20 33.92491 -118.43447 428 ft 214 kts 242°
2026-05-07 05:20 33.91738 -118.44913 702 ft 182 kts 232°
2026-05-07 05:20 33.90883 -118.46065 1045 ft 199 kts 224°
2026-05-07 05:21 33.89802 -118.47125 827 ft 204 kts 214°